Location: Monrovia
(34.7865°N, 86.7139°W)
Time: 21:05:16
(UTC+00:00)

Cosmos 1242 Rocket - Pass Details

Date: 14 July 2020
Orbit: 448 x 487 km, 81.2° (Epoch: 08 August)

Event Time Altitude Azimuth Distance (km) Brightness Sun altitude
Rises 09:35:48 0° 336° (NNW) 2,460 6.3 -12.7°
Reaches altitude 10° 09:38:09 10° 321° (NW) 1,587 5.2 -12.3°
Maximum altitude 09:40:55 23° 268° (W) 1,016 3.7 -11.9°
Enters shadow 09:42:11 19° 236° (SW) 1,157 3.8 -11.7°
